When you browse on this site, cookies collect data to enhance your experience and personalize the content and advertising you see.
Visit our Privacy Policy to learn more. By continuing to use the site, you agree to this use of cookies and data.
  • In Austria
  • List of Countries
  • For 7 days
  • Water Temperature
  • Satellite Maps
  • Weather Map
  • News
  • Weather Widgets
  • user-avatar
    Login

    Hourly Weather Idzhewan

    Today, 26 June, Wednesday

    Time Temperature Precipitation Wind Pressure Humidity
    00:00 +23°C° 0 mm 1 mps 694 mmHg 75%
    01:00 +23°C° 0 mm 1 mps 694 mmHg 75%
    02:00 +23°C° 0 mm 1 mps 694 mmHg 75%
    03:00 +22°C° 0 mm 1 mps 694 mmHg 76%
    04:00 +23°C° 0 mm 1 mps 694 mmHg 76%
    05:00 +24°C° 0 mm 1 mps 695 mmHg 77%
    06:00 +24°C° 0 mm 1 mps 695 mmHg 77%
    07:00 +26°C° 0 mm 1 mps 695 mmHg 72%
    08:00 +27°C° 0 mm 1 mps 695 mmHg 67%
    09:00 +29°C° 0 mm 1 mps 695 mmHg 62%
    10:00 +29°C° 0.4 mm 2 mps 695 mmHg 60%
    11:00 +30°C° 0.4 mm 2 mps 695 mmHg 59%
    12:00 +31°C° 0.4 mm 2 mps 695 mmHg 58%
    13:00 +31°C° 0.3 mm 2 mps 694 mmHg 58%
    14:00 +31°C° 0.3 mm 2 mps 694 mmHg 57%
    15:00 +31°C° 0.3 mm 1 mps 694 mmHg 57%
    16:00 +31°C° 0.7 mm 1 mps 693 mmHg 61%
    17:00 +30°C° 0.7 mm 1 mps 693 mmHg 64%
    18:00 +30°C° 0.7 mm 1 mps 693 mmHg 68%
    19:00 +28°C° 0.5 mm 1 mps 693 mmHg 70%
    20:00 +26°C° 0.5 mm 1 mps 693 mmHg 72%
    21:00 +24°C° 0.5 mm 1 mps 693 mmHg 75%
    22:00 +23°C° 0 mm 1 mps 693 mmHg 75%
    23:00 +23°C° 0 mm 1 mps 693 mmHg 76%

    Tomorrow, 27 June, Thursday

    Time Temperature Precipitation Wind Pressure Humidity
    00:00 +22°C° 0 mm 1 mps 693 mmHg 77%
    01:00 +22°C° 0 mm 1 mps 693 mmHg 78%
    02:00 +22°C° 0 mm 1 mps 692 mmHg 79%
    03:00 +21°C° 0 mm 1 mps 692 mmHg 80%
    04:00 +22°C° 0.1 mm 1 mps 692 mmHg 80%
    05:00 +22°C° 0.1 mm 1 mps 692 mmHg 80%
    06:00 +23°C° 0.1 mm 1 mps 692 mmHg 81%
    07:00 +24°C° 0 mm 1 mps 692 mmHg 77%
    08:00 +25°C° 0 mm 1 mps 692 mmHg 73%
    09:00 +27°C° 0 mm 2 mps 692 mmHg 70%
    10:00 +27°C° 0 mm 2 mps 692 mmHg 69%
    11:00 +27°C° 0 mm 2 mps 691 mmHg 68%
    12:00 +28°C° 0 mm 2 mps 691 mmHg 68%
    13:00 +28°C° 0.1 mm 2 mps 691 mmHg 67%
    14:00 +28°C° 0.1 mm 2 mps 690 mmHg 67%
    15:00 +29°C° 0.1 mm 2 mps 690 mmHg 67%
    16:00 +28°C° 0.2 mm 1 mps 690 mmHg 69%
    17:00 +28°C° 0.2 mm 1 mps 690 mmHg 70%
    18:00 +28°C° 0.2 mm 1 mps 690 mmHg 72%
    19:00 +26°C° 0.3 mm 1 mps 690 mmHg 75%
    20:00 +24°C° 0.3 mm 1 mps 690 mmHg 78%
    21:00 +21°C° 0.3 mm 0 mps 690 mmHg 81%
    22:00 +20°C° 0.1 mm 0 mps 690 mmHg 82%
    23:00 +20°C° 0.1 mm 0 mps 690 mmHg 82%

    Day after tomorrow, 28 June, Friday

    Time Temperature Precipitation Wind Pressure Humidity
    00:00 +22°C° 0.1 mm 1 mps 689 mmHg 83%
    01:00 +21°C° 0.1 mm 1 mps 689 mmHg 84%
    02:00 +21°C° 0.1 mm 1 mps 689 mmHg 86%
    03:00 +19°C° 0.1 mm 0 mps 689 mmHg 88%
    04:00 +19°C° 0 mm 0 mps 688 mmHg 87%
    05:00 +21°C° 0 mm 1 mps 688 mmHg 87%
    06:00 +21°C° 0 mm 1 mps 688 mmHg 87%
    07:00 +22°C° 0.1 mm 1 mps 688 mmHg 85%
    08:00 +23°C° 0.1 mm 1 mps 688 mmHg 83%
    09:00 +24°C° 0.1 mm 2 mps 688 mmHg 81%
    10:00 +25°C° 0.2 mm 2 mps 687 mmHg 79%
    11:00 +25°C° 0.2 mm 2 mps 687 mmHg 76%
    12:00 +26°C° 0.2 mm 2 mps 686 mmHg 74%
    13:00 +26°C° 0.1 mm 2 mps 686 mmHg 72%
    14:00 +27°C° 0.1 mm 1 mps 686 mmHg 71%
    15:00 +27°C° 0.1 mm 1 mps 685 mmHg 70%
    16:00 +27°C° 0.4 mm 1 mps 685 mmHg 71%
    17:00 +27°C° 0.4 mm 1 mps 685 mmHg 73%
    18:00 +27°C° 0.4 mm 1 mps 686 mmHg 74%
    19:00 +25°C° 1 mm 1 mps 686 mmHg 77%
    20:00 +24°C° 1 mm 2 mps 686 mmHg 80%
    21:00 +21°C° 1 mm 2 mps 686 mmHg 83%
    22:00 +21°C° 0 mm 2 mps 686 mmHg 82%
    23:00 +22°C° 0 mm 1 mps 686 mmHg 81%

    29 June, Saturday

    Time Temperature Precipitation Wind Pressure Humidity
    00:00 +21°C° 0 mm 1 mps 686 mmHg 79%
    01:00 +21°C° 0 mm 1 mps 686 mmHg 80%
    02:00 +20°C° 0 mm 1 mps 685 mmHg 81%
    03:00 +20°C° 0 mm 1 mps 685 mmHg 81%
    04:00 +20°C° 0 mm 1 mps 685 mmHg 81%
    05:00 +21°C° 0 mm 1 mps 685 mmHg 80%
    06:00 +22°C° 0 mm 1 mps 685 mmHg 80%
    07:00 +23°C° 0.1 mm 1 mps 685 mmHg 76%
    08:00 +25°C° 0.1 mm 1 mps 685 mmHg 71%
    09:00 +26°C° 0.1 mm 2 mps 685 mmHg 67%
    10:00 +27°C° 0.5 mm 2 mps 685 mmHg 67%
    11:00 +27°C° 0.5 mm 2 mps 685 mmHg 67%
    12:00 +27°C° 0.5 mm 2 mps 685 mmHg 67%
    13:00 +27°C° 0.8 mm 3 mps 685 mmHg 68%
    14:00 +27°C° 0.8 mm 3 mps 685 mmHg 70%
    15:00 +27°C° 0.8 mm 3 mps 685 mmHg 72%
    16:00 +25°C° 2.7 mm 3 mps 685 mmHg 79%
    17:00 +24°C° 2.7 mm 2 mps 685 mmHg 86%
    18:00 +22°C° 2.7 mm 1 mps 685 mmHg 93%
    19:00 +22°C° 0.9 mm 1 mps 686 mmHg 93%
    20:00 +21°C° 0.9 mm 1 mps 686 mmHg 92%
    21:00 +21°C° 0.9 mm 1 mps 687 mmHg 92%
    22:00 +20°C° 0.1 mm 1 mps 687 mmHg 92%
    23:00 +18°C° 0.1 mm 0 mps 687 mmHg 91%

    30 June, Sunday

    Time Temperature Precipitation Wind Pressure Humidity
    00:00 +18°C° 0.1 mm 0 mps 687 mmHg 91%
    01:00 +18°C° 0 mm 0 mps 687 mmHg 91%
    02:00 +17°C° 0 mm 0 mps 687 mmHg 91%
    03:00 +19°C° 0 mm 1 mps 687 mmHg 91%
    04:00 +19°C° 0 mm 1 mps 687 mmHg 90%
    05:00 +20°C° 0 mm 1 mps 687 mmHg 89%
    06:00 +20°C° 0 mm 1 mps 687 mmHg 87%
    07:00 +21°C° 0.1 mm 1 mps 687 mmHg 84%
    08:00 +21°C° 0.1 mm 2 mps 687 mmHg 80%
    09:00 +23°C° 0.1 mm 2 mps 687 mmHg 77%
    10:00 +24°C° 0.4 mm 2 mps 687 mmHg 75%
    11:00 +24°C° 0.4 mm 2 mps 687 mmHg 74%
    12:00 +24°C° 0.4 mm 2 mps 687 mmHg 72%
    13:00 +24°C° 0.7 mm 3 mps 687 mmHg 74%
    14:00 +24°C° 0.7 mm 3 mps 686 mmHg 77%
    15:00 +22°C° 0.7 mm 3 mps 686 mmHg 79%
    16:00 +21°C° 1.1 mm 2 mps 686 mmHg 83%
    17:00 +20°C° 1.1 mm 2 mps 686 mmHg 87%
    18:00 +19°C° 1.1 mm 2 mps 686 mmHg 91%
    19:00 +18°C° 1.6 mm 2 mps 687 mmHg 93%
    20:00 +19°C° 1.6 mm 1 mps 687 mmHg 95%
    21:00 +18°C° 1.6 mm 1 mps 688 mmHg 97%
    22:00 +18°C° 0.2 mm 1 mps 688 mmHg 95%
    23:00 +18°C° 0.2 mm 1 mps 688 mmHg 94%

    1 July, Monday

    Time Temperature Precipitation Wind Pressure Humidity
    00:00 +18°C° 0.2 mm 1 mps 688 mmHg 93%
    01:00 +16°C° 0.1 mm 1 mps 688 mmHg 91%
    02:00 +15°C° 0.1 mm 0 mps 688 mmHg 90%
    03:00 +15°C° 0.1 mm 0 mps 687 mmHg 88%
    04:00 +15°C° 0.1 mm 0 mps 687 mmHg 87%
    05:00 +15°C° 0.1 mm 0 mps 688 mmHg 85%
    06:00 +18°C° 0.1 mm 1 mps 688 mmHg 84%
    07:00 +18°C° 0.1 mm 1 mps 688 mmHg 80%
    08:00 +19°C° 0.1 mm 1 mps 688 mmHg 75%
    09:00 +19°C° 0.1 mm 1 mps 688 mmHg 71%
    10:00 +20°C° 0.1 mm 1 mps 688 mmHg 69%
    11:00 +21°C° 0.1 mm 1 mps 688 mmHg 67%
    12:00 +21°C° 0.1 mm 2 mps 688 mmHg 65%
    13:00 +20°C° 0.2 mm 2 mps 688 mmHg 67%
    14:00 +21°C° 0.2 mm 1 mps 688 mmHg 69%
    15:00 +21°C° 0.2 mm 1 mps 687 mmHg 71%
    16:00 +20°C° 0.7 mm 1 mps 688 mmHg 76%
    17:00 +18°C° 0.7 mm 2 mps 688 mmHg 80%
    18:00 +17°C° 0.7 mm 2 mps 688 mmHg 85%
    19:00 +16°C° 0.4 mm 1 mps 689 mmHg 87%
    20:00 +16°C° 0.4 mm 1 mps 689 mmHg 89%
    21:00 +15°C° 0.4 mm 1 mps 690 mmHg 91%
    22:00 +15°C° 0 mm 1 mps 690 mmHg 89%
    23:00 +14°C° 0 mm 1 mps 690 mmHg 88%
    Show more